Hudson Falls, NY

8:07 AM EDT on August 26, 2016 (GMT -0400)
Bennett Memorial

Weather History for KGFL - February, 2013

Change the Weather History Date:

Monday, February 4, 2013

  Actual Average Record
Temperature  
Mean Temperature 19 °F 19 °F  
Max Temperature 26 °F 30 °F 54 °F (1991)
Min Temperature 12 °F 7 °F -22 °F (1978)
Degree Days  
Heating Degree Days 46 46  
Month to date heating degree days 190 185  
Since 1 July heating degree days 4135 4581  
Cooling Degree Days 0 0  
Month to date cooling degree days 0 0  
Year to date cooling degree days 0 0  
Moisture  
Dew Point 4 °F    
Average Humidity 57    
Maximum Humidity 80    
Minimum Humidity 33    
Precipitation  
Precipitation 0.00 in 0.07 in 1.27 in (1961)
Month to date precipitation T 0.31  
Year to date precipitation 1.28 3.17  
Sea Level Pressure  
Sea Level Pressure 29.87 in    
Wind  
Wind Speed 8 mph (WSW)    
Max Wind Speed 25 mph    
Max Gust Speed 39 mph    
Visibility 10 miles    
Events      
T = Trace of Precipitation, MM = Missing Value Source: NWS Daily Summary

Daily Weather History Graph

Daily Weather History Graph

Search for Another Location

Airport or City:

Trip Planner

Search our weather history database for the weather conditions in past years. The results will help you decide how hot, cold, wet, or windy it might be!

Date:

Astronomy

Feb. 04, 2013 Rise Set
Actual Time 7:06 AM EST 5:10 PM EST
Civil Twilight 6:36 AM EST 5:40 PM EST
Nautical Twilight 6:02 AM EST 6:14 PM EST
Astronomical Twilight 5:29 AM EST 6:48 PM EST
Moon 1:41 AM EST (2/4) 11:29 AM EST (2/4)
Length of Visible Light 11h 04m
Length of Day
10h 04m
Last Quarter, 37% of the Moon is Illuminated
Feb 4
Last Quarter
Feb 10
New
Feb 17
First Quarter
Feb 25
Full
Mar 4
Last Quarter

Hourly Weather History & Observations

Time (EST) Temp. Windchill Dew Point Humidity Pressure Visibility Wind Dir Wind Speed Gust Speed Precip Events Conditions
12:53 AM 17.1 °F - 12.9 °F 84% 29.78 in 10.0 mi Calm Calm - N/A   Overcast
1:53 AM 18.0 °F - 12.9 °F 81% 29.79 in 10.0 mi Calm Calm - N/A   Mostly Cloudy
2:53 AM 16.0 °F 10.4 °F 10.9 °F 81% 29.78 in 10.0 mi SW 3.5 mph - N/A   Scattered Clouds
3:53 AM 18.0 °F 11.1 °F 10.9 °F 74% 29.79 in 10.0 mi WSW 4.6 mph - N/A   Clear
5:53 AM 15.1 °F 7.7 °F 7.0 °F 70% 29.83 in 10.0 mi WSW 4.6 mph - N/A   Clear
6:53 AM 14.0 °F 6.5 °F 8.1 °F 77% 29.86 in 10.0 mi SW 4.6 mph - N/A   Clear
7:53 AM 14.0 °F 5.1 °F 8.1 °F 77% 29.87 in 10.0 mi SW 5.8 mph - N/A   Scattered Clouds
8:53 AM 19.0 °F 12.3 °F 10.0 °F 68% 29.87 in 10.0 mi SW 4.6 mph - N/A   Overcast
9:53 AM 21.0 °F 11.4 °F 10.0 °F 63% 29.85 in 10.0 mi SSW 8.1 mph 17.3 mph N/A   Partly Cloudy
10:53 AM 24.1 °F 10.6 °F 1.9 °F 38% 29.84 in 10.0 mi West 17.3 mph 27.6 mph N/A   Mostly Cloudy
11:53 AM 25.0 °F 14.8 °F 1.0 °F 36% 29.83 in 10.0 mi West 10.4 mph 24.2 mph N/A   Mostly Cloudy
12:53 PM 25.0 °F 10.6 °F -0.0 °F 34% 29.83 in 10.0 mi West 20.7 mph 31.1 mph N/A   Mostly Cloudy
1:53 PM 23.0 °F 9.2 °F -0.9 °F 35% 29.84 in 10.0 mi West 17.3 mph 24.2 mph N/A   Mostly Cloudy
2:53 PM 26.1 °F 15.6 °F 1.0 °F 34% 29.86 in 10.0 mi WNW 11.5 mph 25.3 mph N/A   Overcast
3:53 PM 23.0 °F 13.1 °F -0.9 °F 35% 29.87 in 10.0 mi West 9.2 mph 24.2 mph N/A   Mostly Cloudy
4:53 PM 21.0 °F 10.6 °F -0.9 °F 38% 29.88 in 10.0 mi West 9.2 mph 16.1 mph N/A   Partly Cloudy
5:53 PM 19.0 °F 10.0 °F -0.0 °F 43% 29.91 in 10.0 mi West 6.9 mph - N/A   Mostly Cloudy
6:53 PM 18.0 °F 6.1 °F -0.0 °F 45% 29.93 in 10.0 mi WNW 10.4 mph - N/A   Clear
7:53 PM 17.1 °F 7.6 °F -0.0 °F 47% 29.95 in 10.0 mi West 6.9 mph - N/A   Clear
8:53 PM 16.0 °F 8.8 °F 1.0 °F 52% 29.96 in 10.0 mi WSW 4.6 mph - N/A   Mostly Cloudy
9:53 PM 17.1 °F 7.6 °F 1.9 °F 52% 29.96 in 10.0 mi SSW 6.9 mph - N/A   Overcast
10:53 PM 16.0 °F 7.4 °F 1.9 °F 54% 29.96 in 10.0 mi SW 5.8 mph - N/A   Overcast
11:53 PM 12.9 °F 5.2 °F 3.9 °F 67% 29.97 in 10.0 mi SSW 4.6 mph - N/A   Mostly Cloudy